Location: Roanoke
(37.2710°N, 79.9420°W)
Time: 16:42:28
(UTC-05:00)

Explorer 7 - Visible Passes

Search period start: 20 November 2019 00:00
Search period end: 30 November 2019 00:00
Orbit: 485 x 680 km, 50.3° (Epoch: 20 November)

Date Brightness Start Highest point End Pass type
(mag) Time Alt. Az. Time Alt. Az. Time Alt. Az.
20 Nov 10.0 04:06:55 10° NE 04:06:55 10° NE 04:06:57 10° NE visible
20 Nov 7.3 05:43:15 22° NW 05:45:35 51° NNE 05:49:22 10° ESE visible
21 Nov 9.8 04:11:58 13° ENE 04:11:58 13° ENE 04:12:38 10° ENE visible
21 Nov 6.7 05:48:18 25° NW 05:50:35 85° NE 05:54:27 10° SE visible
22 Nov 9.5 04:17:04 16° ENE 04:17:04 16° ENE 04:18:13 10° E visible
22 Nov 6.9 05:53:24 25° WNW 05:55:30 54° SW 05:59:17 10° SE visible
23 Nov 9.3 04:22:15 20° E 04:22:15 20° E 04:23:39 10° E visible
23 Nov 7.7 05:58:35 22° W 06:00:19 30° SW 06:03:45 10° SSE visible
24 Nov 9.2 04:27:30 21° ESE 04:27:30 21° ESE 04:28:54 10° ESE visible
24 Nov 8.5 06:03:51 15° WSW 06:05:04 17° SW 06:07:41 10° S visible
25 Nov 9.2 04:32:49 18° SE 04:32:49 18° SE 04:33:54 10° SE visible
26 Nov 9.5 04:38:12 13° SSE 04:38:12 13° SSE 04:38:37 10° SSE visible
27 Nov 10.2 20:13:34 10° SW 20:13:34 10° SW 20:13:34 10° SW visible
28 Nov 8.9 18:39:46 10° S 18:42:37 18° SE 18:42:37 18° SE visible
28 Nov 10.1 20:18:29 10° WSW 20:18:58 13° WSW 20:18:58 13° WSW visible
29 Nov 8.2 18:43:38 10° SSW 18:47:55 31° SE 18:47:56 31° SE visible
29 Nov 10.1 20:23:37 10° WSW 20:24:17 14° WSW 20:24:17 14° WSW visible
